TITAN 3C TRANSTAGE DEB, 1833

Orbit data source: Space-Track

TITAN 3C TRANSTAGE DEB, 1833 is space debris in LEO originally from a launch on Fri, 15 Oct 1965 UTC launched from the Air Force Eastern Test Range (AFETR). Debris objects in space refer to the collection of defunct objects orbiting the Earth. Examples of debris include non-operational satellites, rocket bodies, and fragments generated from explosions, collisions, or faulty payload assembly.

Loading next visibility...
Identifier
1833, 1965-082DY
Orbit
LEO
Country
Flag of USUS
Related business
Manufacturer
Unknown
Mission
Spacecraft
Bus & Motor
Unknown
Mass
Unknown
Launch date (UTC)
1965-10-15 (61 years ago)
Launch vehicle
Unknown
Launch site
Air Force Eastern Test Range (AFETR)
Object type
Payload
Rocket body
Debris
Shape & HBR
Unknown shape, 0.2 m
Radar Cross Section
Medium (>0.1 m² and <1 m²)

Expand to show TLE details & history
Last TLE update: 21 hours ago

TLE from 21 hours ago
0 TITAN 3C TRANSTAGE DEB
1 01833U 65082DY  26236.13370063  .00003447  00000-0  48916-3 0  9997
2 01833  32.2266 154.5069 0057424  34.9506 325.4895 14.74568375179987
Epoch: 2026-08-24T03:12Z
TLE epoch observation values (Epoch: 2026-08-24T03:12:31.734Z)
Latitude
-0.00003°
Longitude
133.95485°
Altitude
612.017 km
Speed
7.573 km/s
True Right ascension
10h 18m 01s
True Declination
0° 00' 00"
Sunlit
Object was in daylight at epoch
Visualization orbit readout
Latitude
Unknown
Longitude
Unknown
Altitude
Unknown
Speed
Unknown
Apparent Right ascension
Unknown
Apparent Declination
Unknown
Sunlit
N/A
Visualization observer readout
Local Sidereal Time
15:54:29
Azimuth
Unknown
Elevation
Unknown
Doppler factor
Unknown
Orbital elements
Apogee altitude
690.482 km
Perigee altitude
609.764 km
Semi-major axis
7,028.26 km
Eccentricity
0.00574
Inclination
32.2266°
RAAN
154.5069°
Arg. of periapsis
34.9506°
True anomaly
325.11447°
Mean anomaly
325.4895°
Eccentric anomaly
325.30221°
Mean motion
3.68359 °/min
Orbital period
97.73 mins
BSTAR
0.00048916

Documentation

Showing up to 5 results
|